Date_and_time,latitude,longitude,wind_speed,RelWindDirFrom,WindDirFrom,air_pressure,air_temperature,relative_humidity,Temp,platform_speed_wrt_ground,air_pressure_at_mean_sea_level,platform_orientation
2019-07-18 23:50,50.6304566666667,-96.9807633333333,9.3,12.7,180,970.98,24.5,60,24.07,0.0,996.10,360.0
2019-07-19 00:00,50.630455,-96.98076,8.6,10.8,183,970.94,24.5,61,23.97,0.0,996.06,90.0
2019-07-19 00:10,50.6304533333333,-96.98076,7.1,9.6,186,970.93,24.3,62,23.99,0.0,996.04,90.0
2019-07-19 00:20,50.6304516666667,-96.9807633333333,8.8,12.0,185,971.10,24.4,61,24.00,0.0,996.20,90.0
2019-07-19 00:30,50.6304616666667,-96.980775,8.7,11.9,185,971.36,24.3,60,23.93,0.0,996.46,90.0
2019-07-19 00:40,50.6304683333333,-96.98077,8.3,10.7,187,971.53,24.2,61,23.88,0.0,996.63,90.0
2019-07-19 00:50,50.6304516666667,-96.9807766666667,6.0,8.1,188,971.40,24.6,60,23.85,0.0,996.48,90.0
2019-07-19 01:00,50.6304383333333,-96.9807616666667,5.8,7.4,184,971.17,24.6,62,23.89,0.0,996.25,131.7
2019-07-19 01:10,50.6304416666667,-96.9807583333333,4.6,5.6,193,971.20,24.2,63,23.80,0.0,996.30,131.7
2019-07-19 01:20,50.6304433333333,-96.9807566666667,2.0,4.0,196,971.11,24.2,63,23.73,0.0,996.21,131.7
2019-07-19 01:30,50.6304466666667,-96.9807583333333,3.8,5.9,182,971.12,24.1,64,23.75,0.0,996.24,131.7
2019-07-19 01:40,50.6304483333333,-96.98076,6.4,11.1,196,971.39,23.7,68,23.74,0.0,996.54,131.7
2019-07-19 01:50,50.63045,-96.98076,7.0,24.1,284,971.82,23.5,58,23.70,0.0,996.99,131.7
2019-07-19 02:00,50.63045,-96.9807616666667,14.8,18.7,333,971.81,21.4,61,23.68,0.0,997.08,131.7
2019-07-19 02:10,50.6304416666667,-96.9807516666667,12.8,19.8,356,971.91,19.6,73,23.57,0.0,997.26,131.7
2019-07-19 02:20,50.6304583333333,-96.98078,13.5,16.5,7,971.70,19.1,83,23.90,0.0,997.06,131.7
2019-07-19 02:30,50.63045,-96.980765,8.9,10.9,5,971.99,19.0,90,24.01,0.0,997.37,131.7
2019-07-19 02:40,50.6304533333333,-96.9807666666667,8.9,11.5,11,971.93,19.0,92,24.14,0.0,997.29,131.7
2019-07-19 02:50,50.6304533333333,-96.98077,7.6,9.3,9,971.98,19.1,87,24.00,0.0,997.34,131.7
2019-07-19 03:00,50.630455,-96.9807683333333,5.4,7.1,24,971.90,19.2,86,23.87,0.0,997.28,270.0
2019-07-19 03:10,50.630455,-96.9807666666667,5.5,7.6,51,971.91,19.8,81,23.72,0.0,997.25,270.0
2019-07-19 03:20,50.630455,-96.9807683333333,4.9,6.4,58,971.82,20.0,80,23.90,0.0,997.16,270.0
2019-07-19 03:30,50.630455,-96.9807666666667,2.1,4.6,44,971.86,20.0,79,23.56,0.0,997.21,270.0
2019-07-19 03:40,50.630455,-96.9807666666667,0.2,3.5,280,972.12,19.9,77,23.32,0.0,997.50,270.0
2019-07-19 03:50,50.6304533333333,-96.9807516666667,12.6,21.2,305,973.27,19.1,81,23.47,0.0,998.81,270.0
2019-07-19 04:00,50.6304516666667,-96.9807616666667,10.1,15.5,327,973.09,18.1,88,23.56,0.0,998.75,360.0
2019-07-19 04:10,50.6304516666667,-96.9807616666667,7.1,10.5,332,973.16,17.4,95,23.63,0.0,998.88,360.0
2019-07-19 04:20,50.63045,-96.9807583333333,5.0,7.1,338,973.05,17.3,97,23.40,0.0,998.77,360.0
2019-07-19 04:30,50.6304483333333,-96.98076,3.7,5.7,359,972.86,17.6,94,23.36,0.0,998.56,360.0
2019-07-19 04:40,50.63045,-96.98076,0.9,2.2,294,972.86,17.7,95,23.67,0.0,998.55,360.0
2019-07-19 04:50,50.6304433333333,-96.9807733333333,1.3,2.7,296,972.93,17.7,95,23.73,0.0,998.62,360.0
2019-07-19 05:00,50.630455,-96.9807633333333,0.7,2.4,290,972.97,17.8,95,23.39,0.0,998.62,270.0
2019-07-19 05:10,50.63045,-96.9807616666667,1.2,3.6,215,972.92,17.5,99,23.22,0.0,998.58,270.0
2019-07-19 05:20,50.63045,-96.9807616666667,2.5,4.3,207,972.89,17.4,99,23.49,0.0,998.55,270.0
2019-07-19 05:30,50.6304516666667,-96.980765,1.8,5.6,167,972.77,17.4,99,23.64,0.0,998.43,270.0
2019-07-19 05:40,50.6304516666667,-96.9807666666667,3.3,6.1,194,972.89,17.1,99,23.36,0.0,998.61,270.0
2019-07-19 05:50,50.6304516666667,-96.9807683333333,3.8,7.3,218,972.97,16.7,99,23.16,0.0,998.75,270.0
2019-07-19 06:00,50.6304533333333,-96.9807683333333,3.2,4.6,204,972.92,16.7,99,23.13,0.0,998.73,0.0
2019-07-19 06:10,50.6304533333333,-96.9807683333333,3.3,4.6,205,973.05,16.9,99,23.14,0.0,998.86,0.0
2019-07-19 06:20,50.6304533333333,-96.9807666666667,3.5,5.6,224,973.24,16.6,99,23.15,0.0,999.05,0.0
2019-07-19 06:30,50.6304533333333,-96.9807666666667,4.6,6.0,211,973.26,16.3,100,23.15,0.0,999.08,0.0
2019-07-19 06:40,50.6304533333333,-96.9807666666667,5.4,6.7,209,973.27,16.4,99,23.19,0.0,999.09,0.0
2019-07-19 06:50,50.6304533333333,-96.9807666666667,4.4,5.5,223,973.30,16.4,99,23.28,0.0,999.12,0.0
2019-07-19 07:00,50.6304533333333,-96.9807666666667,5.0,6.4,228,973.37,16.2,99,23.21,0.0,999.21,270.0
2019-07-19 07:10,50.6304533333333,-96.9807683333333,4.4,5.7,238,973.45,16.1,99,23.18,0.0,999.30,270.0
2019-07-19 07:20,50.6304533333333,-96.9807683333333,4.4,5.9,255,973.50,16.2,99,23.16,0.0,999.35,270.0
2019-07-19 07:30,50.6304533333333,-96.9807683333333,5.4,6.9,223,973.59,16.2,99,23.18,0.0,999.45,270.0
2019-07-19 07:40,50.6304533333333,-96.9807666666667,6.5,11.7,256,974.32,16.2,99,23.11,0.0,1000.22,270.0
2019-07-19 07:50,50.6304366666667,-96.980785,6.0,19.3,315,974.02,16.9,91,23.06,0.0,999.88,270.0
2019-07-19 08:00,50.6304483333333,-96.9807783333333,1.3,5.8,251,973.25,18.1,75,23.05,0.0,999.03,248.5
2019-07-19 08:10,50.6304466666667,-96.980775,4.9,9.6,178,973.05,18.4,76,23.06,0.0,998.82,248.5
2019-07-19 08:20,50.63045,-96.9807716666667,8.0,10.3,192,972.92,18.1,86,23.04,0.0,998.71,248.5
2019-07-19 08:30,50.63045,-96.9807716666667,1.9,8.9,216,973.04,17.4,94,23.03,0.0,998.87,248.5
2019-07-19 08:40,50.63047,-96.9807816666667,1.4,4.9,215,973.13,17.3,91,23.13,0.0,998.97,248.5
2019-07-19 08:50,50.6304566666667,-96.9807633333333,4.4,6.4,316,973.28,17.2,93,23.19,0.0,999.14,248.5
2019-07-19 09:00,50.630455,-96.9807633333333,3.3,5.0,268,973.44,16.6,97,23.05,0.0,999.32,0.0
2019-07-19 09:10,50.6304516666667,-96.9807666666667,4.0,6.0,226,973.52,16.5,98,22.93,0.0,999.41,0.0
2019-07-19 09:20,50.6304483333333,-96.98076,1.8,4.2,263,973.51,16.7,98,23.00,0.0,999.39,0.0
2019-07-19 09:30,50.63044,-96.9807683333333,1.4,2.2,251,973.45,16.4,99,23.05,0.0,999.35,0.0
2019-07-19 09:40,50.6304633333333,-96.9807516666667,2.1,2.7,277,973.22,16.3,99,22.98,0.0,999.08,0.0
2019-07-19 09:50,50.6304533333333,-96.9807666666667,2.3,3.2,269,973.12,16.2,100,22.99,0.0,998.93,0.0
2019-07-19 10:00,50.6304566666667,-96.9807583333333,1.5,2.6,276,973.13,16.4,100,22.99,0.0,998.91,90.0
2019-07-19 10:10,50.6304533333333,-96.9807616666667,1.0,2.4,215,973.00,16.3,99,22.97,0.0,998.80,90.0
2019-07-19 10:20,50.63045,-96.9807633333333,2.4,3.3,198,972.91,16.3,100,22.89,0.0,998.74,90.0
2019-07-19 10:30,50.6304466666667,-96.9807616666667,4.1,5.5,183,972.82,16.4,100,22.85,0.0,998.64,90.0
2019-07-19 10:40,50.6304466666667,-96.98076,5.3,5.9,178,972.81,16.3,100,22.85,0.0,998.65,90.0
2019-07-19 10:50,50.6304583333333,-96.9807616666667,5.3,6.3,184,972.88,16.2,100,22.92,0.0,998.74,90.0
2019-07-19 11:00,50.63046,-96.980765,2.7,5.9,223,973.03,16.0,100,22.95,0.0,998.91,49.4
2019-07-19 11:10,50.6304466666667,-96.9807766666667,3.4,4.6,215,973.11,15.6,100,22.95,0.0,999.00,49.4
2019-07-19 11:20,50.630455,-96.9807733333333,3.5,4.8,217,973.21,15.6,100,22.86,0.0,999.12,49.4
2019-07-19 11:30,50.630455,-96.9807716666667,4.4,5.7,207,973.27,15.7,100,22.80,0.0,999.18,49.4
2019-07-19 11:40,50.63046,-96.980765,4.8,7.4,200,973.19,15.8,100,22.82,0.0,999.10,49.4
2019-07-19 11:50,50.630455,-96.980765,5.5,7.4,199,973.30,16.0,100,22.82,0.0,999.19,49.4
2019-07-19 12:00,50.630455,-96.980765,6.5,8.5,207,973.34,16.1,100,22.79,0.0,999.23,0.0
2019-07-19 12:10,50.6304533333333,-96.98076,7.2,9.3,214,973.36,16.4,99,22.80,0.0,999.25,0.0
2019-07-19 12:20,50.6304483333333,-96.9807516666667,7.4,10.2,219,973.45,16.8,99,22.82,0.0,999.31,0.0
2019-07-19 12:30,50.6304466666667,-96.9807533333333,7.0,9.8,223,973.55,17.2,99,22.83,0.0,999.40,0.0
2019-07-19 12:40,50.6304483333333,-96.980755,7.1,9.3,222,973.67,17.6,99,22.83,0.0,999.51,0.0
2019-07-19 12:50,50.6304516666667,-96.980755,6.5,8.9,228,973.60,17.9,98,22.81,0.0,999.44,0.0
2019-07-19 13:00,50.6304533333333,-96.980755,6.1,8.7,218,973.67,18.4,98,22.76,0.0,999.51,0.0
2019-07-19 13:10,50.630425,-96.9807516666667,5.6,8.5,228,973.76,18.6,98,22.87,0.0,999.58,0.0
2019-07-19 13:20,50.6304533333333,-96.9807683333333,7.1,9.2,217,974.06,19.0,97,22.83,0.0,999.87,0.0
2019-07-19 13:30,50.6304533333333,-96.9807683333333,7.8,10.4,220,974.34,19.4,96,22.86,0.0,1000.14,0.0
2019-07-19 13:40,50.6304516666667,-96.9807616666667,7.5,12.0,233,974.36,19.9,93,22.86,0.0,1000.13,0.0
2019-07-19 13:50,50.63045,-96.9807633333333,6.7,9.3,221,974.44,20.3,91,22.85,0.0,1000.18,0.0
2019-07-19 14:00,50.6304716666667,-96.980785,5.3,8.8,250,974.54,20.7,89,22.88,0.0,1000.25,328.9
2019-07-19 14:10,50.63046,-96.98076,6.2,10.6,254,974.64,21.2,85,22.90,0.0,1000.32,328.9
2019-07-19 14:20,50.630455,-96.9807533333333,6.3,10.4,282,974.62,21.6,83,22.90,0.0,1000.26,328.9
2019-07-19 14:30,50.6304516666667,-96.9807533333333,5.2,9.4,268,974.71,21.7,81,22.93,0.0,1000.34,328.9
2019-07-19 14:40,50.6304516666667,-96.9807566666667,5.1,8.3,243,974.84,21.8,78,23.01,0.0,1000.45,328.9
2019-07-19 14:50,50.6304366666667,-96.9807633333333,5.5,8.2,277,974.79,22.1,76,23.02,0.0,1000.36,328.9
2019-07-19 15:00,50.6304533333333,-96.9807733333333,5.6,9.2,294,974.82,22.4,75,23.04,0.0,1000.38,270.0
2019-07-19 15:10,50.6304566666667,-96.9807583333333,6.0,9.8,288,974.93,22.6,72,23.08,0.0,1000.46,270.0
2019-07-19 15:20,50.63045,-96.9807516666667,6.1,9.6,278,974.94,23.0,69,23.16,0.0,1000.44,270.0
2019-07-19 15:30,50.63045,-96.9807516666667,6.3,9.7,283,974.93,23.1,67,23.23,0.0,1000.40,270.0
2019-07-19 15:40,50.63045,-96.98075,5.9,9.9,272,974.84,23.2,64,23.27,0.0,1000.29,270.0
2019-07-19 15:50,50.63045,-96.9807516666667,7.2,12.5,252,974.76,23.3,56,23.22,0.0,1000.19,270.0
2019-07-19 16:00,50.63045,-96.9807516666667,6.9,11.3,254,974.84,23.6,53,23.23,0.0,1000.23,90.0
2019-07-19 16:10,50.6304466666667,-96.9807433333333,4.9,9.7,250,975.06,23.8,54,23.40,0.0,1000.43,90.0
2019-07-19 16:20,50.6304516666667,-96.98075,5.6,10.1,272,975.01,23.9,53,23.33,0.0,1000.37,90.0
2019-07-19 16:30,50.630465,-96.98077,3.2,7.3,281,974.97,23.9,54,23.12,0.0,1000.32,90.0
2019-07-19 16:40,50.6304566666667,-96.9807616666667,4.9,8.8,219,975.09,24.0,54,23.38,0.0,1000.43,90.0
2019-07-19 16:50,50.6304533333333,-96.9807583333333,5.2,10.2,215,975.18,24.0,52,23.50,0.0,1000.51,90.0
2019-07-19 17:00,50.6304516666667,-96.9807583333333,4.9,12.3,274,975.17,24.4,52,23.31,0.0,1000.47,143.4
2019-07-19 17:10,50.6304533333333,-96.98076,7.2,11.7,254,975.25,24.3,49,23.22,0.0,1000.54,143.4
2019-07-19 17:20,50.6304516666667,-96.9807616666667,5.5,10.7,238,975.33,24.3,49,23.20,0.0,1000.62,143.4
2019-07-19 17:30,50.6304833333333,-96.98077,7.8,13.1,237,975.39,24.2,49,23.34,0.0,1000.68,143.4
2019-07-19 17:40,50.63045,-96.9807833333333,6.8,12.2,249,975.42,24.3,48,23.31,0.0,1000.71,143.4
2019-07-19 17:50,50.6304583333333,-96.980775,7.3,12.6,241,975.51,24.4,48,23.17,0.0,1000.78,143.4
2019-07-19 18:00,50.6304766666667,-96.9807866666667,7.5,13.9,233,975.52,24.4,47,23.10,0.0,1000.78,351.6
2019-07-19 18:10,50.6304633333333,-96.9807716666667,7.2,12.6,232,975.49,24.3,48,23.11,0.0,1000.75,351.6
2019-07-19 18:20,50.6304616666667,-96.9807666666667,7.5,13.6,232,975.45,24.4,46,23.62,0.0,1000.70,351.6
2019-07-19 18:30,50.6304633333333,-96.9807616666667,9.0,14.3,236,975.49,24.5,45,23.79,0.0,1000.73,351.6
2019-07-19 18:40,50.6304616666667,-96.9807616666667,8.7,12.7,231,975.47,24.5,42,23.71,0.0,1000.71,351.6
2019-07-19 18:50,50.6304566666667,-96.9807716666667,12.4,20.2,221,975.42,24.5,37,23.53,0.0,1000.65,351.6
2019-07-19 19:00,50.630455,-96.9807716666667,12.6,17.5,227,975.52,24.6,36,23.79,0.0,1000.75,270.0
2019-07-19 19:10,50.63046,-96.9807716666667,13.4,22.8,229,975.69,24.5,34,23.72,0.0,1000.92,270.0
2019-07-19 19:20,50.6304616666667,-96.980775,13.1,19.3,222,975.80,24.4,35,23.90,0.0,1001.04,270.0
2019-07-19 19:30,50.630465,-96.9807566666667,14.6,20.7,225,975.90,24.4,34,24.18,0.0,1001.15,270.0
2019-07-19 19:40,50.630465,-96.9807533333333,11.2,19.2,235,975.93,24.6,35,24.13,0.0,1001.17,270.0
2019-07-19 19:50,50.630465,-96.9807666666667,14.4,24.2,231,975.93,24.5,36,24.09,0.0,1001.17,270.0
2019-07-19 20:00,50.6304616666667,-96.980765,15.1,22.4,228,975.98,24.4,36,24.14,0.0,1001.23,345.5
2019-07-19 20:10,50.6304633333333,-96.98077,12.5,20.2,229,975.91,24.5,36,24.21,0.0,1001.15,345.5
2019-07-19 20:20,50.63046,-96.9807783333333,13.9,20.1,227,975.94,24.3,36,24.18,0.0,1001.18,345.5
2019-07-19 20:30,50.6304583333333,-96.9807583333333,12.0,19.5,244,975.89,24.5,36,24.19,0.0,1001.13,345.5
2019-07-19 20:40,50.630455,-96.9807633333333,13.7,23.0,230,975.92,24.7,36,24.18,0.0,1001.15,345.5
2019-07-19 20:50,50.63045,-96.9807533333333,12.6,22.2,229,975.99,24.4,38,24.17,0.0,1001.23,345.5
2019-07-19 21:00,50.6304516666667,-96.9807583333333,12.0,21.6,237,976.04,24.5,39,24.19,0.0,1001.28,140.5
2019-07-19 21:10,50.6304566666667,-96.9807616666667,14.3,24.4,238,976.10,24.5,38,24.18,0.0,1001.34,140.5
2019-07-19 21:20,50.630455,-96.9807616666667,12.8,22.3,249,976.07,24.1,38,24.15,0.0,1001.33,140.5
2019-07-19 21:30,50.630455,-96.9807633333333,14.5,23.1,240,976.12,24.3,38,24.18,0.0,1001.37,140.5
2019-07-19 21:40,50.6304366666667,-96.9807816666667,15.2,26.1,235,976.20,24.3,37,24.21,0.0,1001.45,140.5
2019-07-19 21:50,50.630455,-96.9807633333333,13.7,21.9,235,976.08,24.3,36,24.20,0.0,1001.33,140.5
2019-07-19 22:00,50.630455,-96.98076,14.8,23.1,233,976.16,24.1,36,24.18,0.0,1001.42,90.0
2019-07-19 22:10,50.6304516666667,-96.9807566666667,12.8,25.9,233,976.14,24.4,36,24.18,0.0,1001.39,90.0
2019-07-19 22:20,50.6304483333333,-96.9807716666667,14.5,23.4,235,976.25,24.2,37,24.19,0.0,1001.50,90.0
2019-07-19 22:30,50.630455,-96.9807666666667,14.4,22.8,233,976.31,24.0,38,24.18,0.0,1001.57,90.0
2019-07-19 22:40,50.6304533333333,-96.9807683333333,14.5,22.7,238,976.35,23.8,38,24.16,0.0,1001.63,90.0
2019-07-19 22:50,50.630455,-96.98077,13.0,22.1,243,976.38,23.9,38,24.15,0.0,1001.66,90.0
2019-07-19 23:00,50.630455,-96.98077,12.4,20.9,253,976.41,24.1,38,24.14,0.0,1001.67,360.0
2019-07-19 23:10,50.6304566666667,-96.9807716666667,12.8,22.5,251,976.52,24.0,38,24.15,0.0,1001.81,360.0
2019-07-19 23:20,50.6304616666667,-96.9807716666667,15.3,24.0,243,976.69,23.6,40,24.14,0.0,1001.99,360.0
2019-07-19 23:30,50.6304566666667,-96.9807683333333,12.9,18.4,244,976.73,23.2,41,24.14,0.0,1002.06,360.0
